Buffalo, NY

6:28 PM EST on November 21, 2019 (GMT -0500)
Buffalo Niagara International

Weather History for KBUF - October, 2019

Change the Weather History Date:

Tuesday, October 22, 2019

  Actual Average Record
Temperature  
Mean Temperature 57 °F 49 °F  
Max Temperature 62 °F 57 °F 81 °F (1979)
Min Temperature 51 °F 41 °F 27 °F (1969)
Degree Days  
Heating Degree Days 8 16  
Month to date heating degree days 269 282  
Since 1 July heating degree days 314 444  
Cooling Degree Days 0 0  
Month to date cooling degree days 7 0  
Year to date cooling degree days 604 540  
Growing Degree Days 5 (Base 50)    
Moisture  
Dew Point 51 °F    
Average Humidity 81    
Maximum Humidity 100    
Minimum Humidity 61    
Precipitation  
Precipitation 0.50 in 0.11 in 1.79 in (1912)
Month to date precipitation 3.17 2.53  
Year to date precipitation 37.82 31.59  
Snow  
Snow 0.00 in 0.10 in 0.90 in (1969)
Month to date snowfall 0.0 0.5  
Since 1 July snowfall 0.0 0.5  
Since 1 September snowfall 0.0 0.5  
Snow Depth 0.00 in    
Sea Level Pressure  
Sea Level Pressure 29.76 in    
Wind  
Wind Speed 12 mph (SSW)    
Max Wind Speed 29 mph    
Max Gust Speed 39 mph    
Visibility 9 miles    
Events Rain    
T = Trace of Precipitation, MM = Missing Value Source: NWS Daily Summary

Daily Weather History Graph

Daily Weather History Graph

Search for Another Location

Airport or City:

Astronomy

Oct. 22, 2019 Rise Set
Actual Time 7:36 AM EDT 6:21 PM EDT
Civil Twilight 7:07 AM EDT 6:50 PM EDT
Nautical Twilight 6:34 AM EDT 7:23 PM EDT
Astronomical Twilight 6:01 AM EDT 7:56 PM EDT
Moon 12:31 AM EDT (10/22) 3:41 PM EDT (10/22)
Length of Visible Light 11h 42m
Length of Day
10h 45m
Last Quarter, 37% of the Moon is Illuminated
Oct 22
Last Quarter
Oct 27
New
Nov 4
First Quarter
Nov 12
Full
Nov 19
Last Quarter

Hourly Weather History & Observations

Time (EDT) Temp. Dew Point Humidity Pressure Visibility Wind Dir Wind Speed Gust Speed Precip Events Conditions
12:54 AM 61.0 °F 46.9 °F 60% 29.80 in 10.0 mi SSE 13.8 mph - 0.00 in Rain Light Rain
1:54 AM 62.1 °F 48.0 °F 60% 29.78 in 10.0 mi South 16.1 mph - 0.00 in   Overcast
3:54 AM 61.0 °F 50.0 °F 67% 29.76 in 10.0 mi South 12.7 mph - 0.00 in Rain Light Rain
4:54 AM 61.0 °F 50.0 °F 67% 29.76 in 10.0 mi SSE 13.8 mph - 0.00 in   Overcast
5:54 AM 57.9 °F 52.0 °F 81% 29.78 in 7.0 mi South 9.2 mph - 0.02 in Rain Light Rain
6:29 AM 55.9 °F 54.0 °F 93% 29.80 in 4.0 mi South 10.4 mph - 0.04 in Rain Light Rain
6:54 AM 55.0 °F 54.0 °F 96% 29.78 in 10.0 mi South 8.1 mph - 0.06 in   Overcast
7:15 AM 55.0 °F 54.0 °F 96% 29.76 in 10.0 mi SSE 8.1 mph - 0.01 in Rain Light Rain
7:54 AM 55.9 °F 53.1 °F 90% 29.75 in 10.0 mi SSE 10.4 mph - 0.01 in Rain Light Rain
8:54 AM 57.0 °F 54.0 °F 89% 29.77 in 10.0 mi South 12.7 mph - 0.00 in Rain Light Rain
9:32 AM 55.9 °F 55.0 °F 97% 29.77 in 2.5 mi South 9.2 mph - 0.08 in Rain Rain
9:50 AM 55.4 °F 55.4 °F 100% 29.77 in 7.0 mi SSW 8.1 mph - 0.15 in Rain Light Rain
9:54 AM 55.9 °F 55.0 °F 97% 29.78 in 9.0 mi SSW 6.9 mph - 0.16 in Rain Light Rain
10:06 AM 55.9 °F 55.0 °F 97% 29.78 in 2.5 mi SW 5.8 mph - 0.00 in Rain Rain
10:18 AM 55.9 °F 55.0 °F 97% 29.78 in 5.0 mi SW 6.9 mph - 0.03 in Rain Light Rain
10:39 AM 55.9 °F 55.0 °F 97% 29.78 in 3.0 mi SW 8.1 mph - 0.07 in Rain Rain
11:23 AM 55.9 °F 55.9 °F 100% 29.78 in 6.0 mi SSW 11.5 mph - 0.05 in Rain Rain
11:40 AM 55.9 °F 55.0 °F 97% 29.77 in 10.0 mi South 8.1 mph - 0.06 in Rain Light Rain
11:54 AM 55.9 °F 55.0 °F 97% 29.77 in 7.0 mi South 8.1 mph - 0.06 in Rain Light Rain
12:54 PM 57.9 °F 55.0 °F 90% 29.70 in 10.0 mi SSE 9.2 mph - 0.02 in   Overcast
1:54 PM 57.9 °F 54.0 °F 87% 29.71 in 10.0 mi South 10.4 mph - 0.00 in Rain Light Rain
2:54 PM 55.9 °F 53.1 °F 90% 29.70 in 10.0 mi South 11.5 mph - 0.03 in Rain Light Rain
3:54 PM 55.9 °F 52.0 °F 87% 29.70 in 10.0 mi South 10.4 mph - 0.00 in   Mostly Cloudy
4:54 PM 55.9 °F 51.1 °F 84% 29.70 in 10.0 mi South 13.8 mph - N/A   Mostly Cloudy
5:54 PM 55.9 °F 51.1 °F 84% 29.68 in 10.0 mi South 11.5 mph - N/A   Scattered Clouds
6:54 PM 55.0 °F 50.0 °F 83% 29.71 in 10.0 mi South 12.7 mph - N/A   Mostly Cloudy
7:10 PM 52.0 °F 48.0 °F 86% 29.73 in 6.0 mi WSW 12.7 mph - 0.02 in Rain Light Rain
7:54 PM 51.1 °F 50.0 °F 96% 29.76 in 10.0 mi SSW 8.1 mph - 0.03 in   Mostly Cloudy
8:54 PM 53.1 °F 46.9 °F 80% 29.77 in 10.0 mi WSW 8.1 mph - N/A   Mostly Cloudy
9:54 PM 55.0 °F 44.1 °F 67% 29.78 in 10.0 mi SW 12.7 mph - N/A   Mostly Cloudy
10:54 PM 55.0 °F 43.0 °F 64% 29.78 in 10.0 mi WSW 15.0 mph 21.9 mph N/A   Mostly Cloudy
11:54 PM 52.0 °F 43.0 °F 71% 29.79 in 10.0 mi WSW 9.2 mph - N/A   Mostly Cloudy